Malmstrom AFB, MT

8:15 PM MST on February 25, 2017 (GMT -0700)
Malmstrom AFB

Weather History for KGFA - March, 2013

Change the Weather History Date:

Friday, March 1, 2013

  Actual Average (KGTF) Record (KGTF)
Temperature  
Mean Temperature 46 °F -  
Max Temperature 57 °F 36 °F 65 °F (1968)
Min Temperature 36 °F 17 °F -22 °F (1919)
Degree Days  
Heating Degree Days 18    
Moisture  
Dew Point 29 °F    
Average Humidity 49    
Maximum Humidity 67    
Minimum Humidity 36    
Precipitation  
Precipitation 0.00 in - - ()
Sea Level Pressure  
Sea Level Pressure 30.24 in    
Wind  
Wind Speed 21 mph (SSW)    
Max Wind Speed 34 mph    
Max Gust Speed 43 mph    
Visibility 10 miles    
Events      
Averages and records for this station are not official NWS values.
T = Trace of Precipitation, MM = Missing Value Source: NWS Daily Summary

Daily Weather History Graph

Daily Weather History Graph

Search for Another Location

Airport or City:

Trip Planner

Search our weather history database for the weather conditions in past years. The results will help you decide how hot, cold, wet, or windy it might be!

Date:

Astronomy

Mar. 01, 2013 Rise Set
Actual Time 7:04 AM MST 6:10 PM MST
Civil Twilight 6:33 AM MST 6:41 PM MST
Nautical Twilight 5:58 AM MST 7:16 PM MST
Astronomical Twilight 5:22 AM MST 7:52 PM MST
Moon 11:11 PM MST (3/1) 8:32 AM MST (3/1)
Length of Visible Light 12h 07m
Length of Day
11h 05m
Waning Gibbous, 83% of the Moon is Illuminated
Mar 1
Waning Gibbous
Mar 4
Last Quarter
Mar 11
New
Mar 19
First Quarter
Mar 27
Full

Hourly Weather History & Observations

Time (MST) Temp. Windchill Dew Point Humidity Pressure Visibility Wind Dir Wind Speed Gust Speed Precip Events Conditions
12:56 AM 37.0 °F 27.0 °F 26.1 °F 65% 30.26 in 10.0 mi SSW 18.4 mph - N/A   Clear
1:56 AM 36.0 °F 26.7 °F 26.1 °F 67% 30.27 in 10.0 mi SSW 15.0 mph - N/A   Clear
2:56 AM 39.9 °F 30.8 °F 27.0 °F 60% 30.24 in 10.0 mi SSW 18.4 mph - N/A   Clear
3:56 AM 42.1 °F 33.6 °F 28.0 °F 58% 30.23 in 10.0 mi SSW 18.4 mph - N/A   Overcast
4:56 AM 44.1 °F 36.5 °F 28.0 °F 53% 30.24 in 10.0 mi SSW 17.3 mph - N/A   Scattered Clouds
5:56 AM 45.0 °F 37.4 °F 28.0 °F 52% 30.26 in 10.0 mi SSW 18.4 mph - N/A   Mostly Cloudy
6:56 AM 44.1 °F 35.9 °F 28.9 °F 55% 30.25 in 10.0 mi SSW 19.6 mph - N/A   Partly Cloudy
7:56 AM 45.0 °F 37.4 °F 30.0 °F 56% 30.25 in 10.0 mi South 18.4 mph - N/A   Scattered Clouds
8:56 AM 48.0 °F - 32.0 °F 54% 30.23 in 10.0 mi SSW 27.6 mph 32.2 mph N/A   Clear
9:56 AM 52.0 °F - 32.0 °F 47% 30.24 in 10.0 mi SSW 26.5 mph 32.2 mph N/A   Clear
10:56 AM 54.0 °F - 30.9 °F 41% 30.25 in 10.0 mi SSW 20.7 mph 31.1 mph N/A   Clear
11:56 AM 55.0 °F - 28.9 °F 37% 30.25 in 10.0 mi SW 23.0 mph 35.7 mph N/A   Clear
12:56 PM 57.0 °F - 30.0 °F 36% 30.23 in 10.0 mi SW 28.8 mph 36.8 mph N/A   Clear
1:56 PM 55.0 °F - 30.0 °F 38% 30.22 in 10.0 mi SSW 34.5 mph 42.6 mph N/A   Clear
2:56 PM 55.0 °F - 30.0 °F 38% 30.20 in 10.0 mi SSW 32.2 mph 40.3 mph N/A   Clear
3:56 PM 55.0 °F - 30.0 °F 38% 30.22 in 10.0 mi SSW 25.3 mph 33.4 mph N/A   Clear
4:56 PM 55.0 °F - 30.0 °F 38% 30.22 in 10.0 mi SSW 25.3 mph 36.8 mph N/A   Clear
5:56 PM 51.1 °F - 30.0 °F 44% 30.22 in 10.0 mi SSW 24.2 mph 32.2 mph N/A   Clear
6:56 PM 48.9 °F - 30.0 °F 48% 30.23 in 10.0 mi SSW 23.0 mph - N/A   Clear
7:56 PM 48.0 °F - 30.0 °F 50% 30.24 in 10.0 mi SSW 21.9 mph - N/A   Clear
8:56 PM 46.9 °F - 30.0 °F 52% 30.23 in 10.0 mi SSW 21.9 mph - N/A   Clear
9:56 PM 48.0 °F - 30.0 °F 50% 30.24 in 10.0 mi SSW 19.6 mph - N/A   Clear
10:56 PM 46.9 °F - 30.0 °F 52% 30.25 in 10.0 mi South 13.8 mph - N/A   Clear
11:56 PM 45.0 °F 38.9 °F 30.0 °F 56% 30.25 in 10.0 mi South 12.7 mph - N/A   Clear